• en France
  • Liste des pays
  • À 7 jours
  • Température de l'eau
  • Carte satellitaire
  • Carte météo
  • Widgets météo
  • user-avatar
    Se connecter

    Météo par heure à Valledupar

    Ce jour, 15 Novembre, Jeudi

    Heure Température Précipitation Vent Pression Humidité
    00:00 +28°C° 0.6 mm 1 m/s 742 mmHg 83%
    01:00 +28°C° 0 mm 1 m/s 742 mmHg 84%
    02:00 +27°C° 0.5 mm 1 m/s 742 mmHg 85%
    03:00 +25°C° 0.5 mm 0 m/s 742 mmHg 86%
    04:00 +25°C° 0.5 mm 0 m/s 742 mmHg 87%
    05:00 +26°C° 0.3 mm 0 m/s 743 mmHg 84%
    06:00 +26°C° 0.3 mm 0 m/s 743 mmHg 82%
    07:00 +27°C° 0 mm 0 m/s 743 mmHg 76%
    08:00 +29°C° 0.1 mm 0 m/s 743 mmHg 67%
    09:00 +33°C° 0.1 mm 1 m/s 743 mmHg 59%
    10:00 +35°C° 0.1 mm 1 m/s 743 mmHg 51%
    11:00 +35°C° 0.3 mm 1 m/s 743 mmHg 50%
    12:00 +35°C° 0.3 mm 1 m/s 742 mmHg 50%
    13:00 +36°C° 0.3 mm 1 m/s 742 mmHg 49%
    14:00 +35°C° 0.5 mm 1 m/s 741 mmHg 52%
    15:00 +34°C° 0.5 mm 1 m/s 741 mmHg 55%
    16:00 +33°C° 0.5 mm 1 m/s 740 mmHg 58%
    17:00 +32°C° 0.5 mm 1 m/s 741 mmHg 64%
    18:00 +30°C° 0.5 mm 1 m/s 741 mmHg 71%
    19:00 +28°C° 0.5 mm 1 m/s 741 mmHg 77%
    20:00 +28°C° 0.4 mm 1 m/s 742 mmHg 79%
    21:00 +28°C° 0.4 mm 1 m/s 742 mmHg 80%
    22:00 +28°C° 0.4 mm 1 m/s 743 mmHg 81%
    23:00 +28°C° 0.5 mm 1 m/s 743 mmHg 82%

    Demain, 16 Novembre, Vendredi

    Heure Température Précipitation Vent Pression Humidité
    00:00 +28°C° 0.5 mm 1 m/s 742 mmHg 83%
    01:00 +28°C° 0.5 mm 1 m/s 742 mmHg 84%
    02:00 +28°C° 0.6 mm 1 m/s 742 mmHg 84%
    03:00 +27°C° 0.6 mm 1 m/s 742 mmHg 85%
    04:00 +27°C° 0.6 mm 1 m/s 741 mmHg 85%
    05:00 +28°C° 0.6 mm 1 m/s 742 mmHg 82%
    06:00 +28°C° 0.6 mm 1 m/s 742 mmHg 80%
    07:00 +29°C° 0.6 mm 1 m/s 742 mmHg 77%
    08:00 +31°C° 0.8 mm 1 m/s 743 mmHg 71%
    09:00 +32°C° 0.8 mm 1 m/s 743 mmHg 65%
    10:00 +34°C° 0.8 mm 1 m/s 743 mmHg 59%
    11:00 +34°C° 0.9 mm 1 m/s 742 mmHg 59%
    12:00 +35°C° 0.9 mm 1 m/s 742 mmHg 58%
    13:00 +36°C° 0.9 mm 1 m/s 741 mmHg 58%
    14:00 +35°C° 1.2 mm 1 m/s 741 mmHg 61%
    15:00 +34°C° 1.2 mm 1 m/s 740 mmHg 64%
    16:00 +33°C° 1.2 mm 1 m/s 740 mmHg 68%
    17:00 +31°C° 1.3 mm 1 m/s 740 mmHg 73%
    18:00 +30°C° 1.3 mm 1 m/s 740 mmHg 77%
    19:00 +29°C° 1.3 mm 1 m/s 741 mmHg 82%
    20:00 +29°C° 1 mm 1 m/s 741 mmHg 83%
    21:00 +28°C° 1 mm 1 m/s 742 mmHg 84%
    22:00 +28°C° 1 mm 1 m/s 742 mmHg 85%
    23:00 +28°C° 1.1 mm 1 m/s 742 mmHg 86%

    Après-demain, 17 Novembre, Samedi

    Heure Température Précipitation Vent Pression Humidité
    00:00 +28°C° 1.1 mm 1 m/s 742 mmHg 86%
    01:00 +28°C° 1.1 mm 1 m/s 742 mmHg 86%
    02:00 +28°C° 1.4 mm 1 m/s 741 mmHg 87%
    03:00 +28°C° 1.4 mm 1 m/s 741 mmHg 87%
    04:00 +28°C° 1.4 mm 1 m/s 741 mmHg 87%
    05:00 +28°C° 1.1 mm 1 m/s 742 mmHg 87%
    06:00 +28°C° 1.1 mm 1 m/s 742 mmHg 86%
    07:00 +29°C° 1.1 mm 1 m/s 743 mmHg 85%
    08:00 +30°C° 1 mm 1 m/s 743 mmHg 79%
    09:00 +31°C° 1 mm 1 m/s 744 mmHg 73%
    10:00 +33°C° 1 mm 1 m/s 744 mmHg 67%
    11:00 +33°C° 1 mm 1 m/s 743 mmHg 65%
    12:00 +34°C° 1 mm 1 m/s 742 mmHg 63%
    13:00 +34°C° 1 mm 1 m/s 741 mmHg 61%
    14:00 +34°C° 1.2 mm 1 m/s 741 mmHg 63%
    15:00 +33°C° 1.2 mm 1 m/s 740 mmHg 66%
    16:00 +32°C° 1.2 mm 1 m/s 740 mmHg 68%
    17:00 +31°C° 0.9 mm 1 m/s 740 mmHg 73%
    18:00 +30°C° 0.9 mm 1 m/s 741 mmHg 78%
    19:00 +29°C° 0.9 mm 1 m/s 741 mmHg 83%
    20:00 +29°C° 0.6 mm 1 m/s 742 mmHg 84%
    21:00 +29°C° 0.6 mm 1 m/s 742 mmHg 86%
    22:00 +29°C° 0.6 mm 1 m/s 743 mmHg 87%
    23:00 +28°C° 0.5 mm 1 m/s 742 mmHg 87%

    18 Novembre, Dimanche

    Heure Température Précipitation Vent Pression Humidité
    00:00 +28°C° 0.5 mm 1 m/s 742 mmHg 88%
    01:00 +28°C° 0.5 mm 1 m/s 742 mmHg 88%
    02:00 +28°C° 0.6 mm 1 m/s 741 mmHg 88%
    03:00 +28°C° 0.6 mm 1 m/s 741 mmHg 88%
    04:00 +28°C° 0.6 mm 1 m/s 741 mmHg 88%
    05:00 +28°C° 0.7 mm 1 m/s 742 mmHg 87%
    06:00 +28°C° 0.7 mm 1 m/s 742 mmHg 85%
    07:00 +29°C° 0.7 mm 1 m/s 742 mmHg 83%
    08:00 +30°C° 0.7 mm 1 m/s 743 mmHg 77%
    09:00 +32°C° 0.7 mm 1 m/s 743 mmHg 70%
    10:00 +33°C° 0.7 mm 1 m/s 743 mmHg 63%
    11:00 +34°C° 0.9 mm 1 m/s 743 mmHg 62%
    12:00 +34°C° 0.9 mm 1 m/s 742 mmHg 62%
    13:00 +35°C° 0.9 mm 1 m/s 741 mmHg 61%
    14:00 +34°C° 1.2 mm 1 m/s 741 mmHg 64%
    15:00 +33°C° 1.2 mm 1 m/s 740 mmHg 67%
    16:00 +32°C° 1.2 mm 1 m/s 740 mmHg 71%
    17:00 +31°C° 1 mm 1 m/s 740 mmHg 76%
    18:00 +30°C° 1 mm 1 m/s 741 mmHg 81%
    19:00 +28°C° 1 mm 1 m/s 741 mmHg 87%
    20:00 +28°C° 0.5 mm 1 m/s 742 mmHg 87%
    21:00 +28°C° 0.5 mm 1 m/s 742 mmHg 88%
    22:00 +28°C° 0.5 mm 1 m/s 743 mmHg 89%
    23:00 +28°C° 0.5 mm 1 m/s 742 mmHg 89%

    19 Novembre, Lundi

    Heure Température Précipitation Vent Pression Humidité
    00:00 +28°C° 0.5 mm 1 m/s 742 mmHg 89%
    01:00 +28°C° 0.5 mm 1 m/s 742 mmHg 89%
    02:00 +27°C° 0.7 mm 1 m/s 742 mmHg 89%
    03:00 +27°C° 0.7 mm 1 m/s 741 mmHg 89%
    04:00 +27°C° 0.7 mm 1 m/s 741 mmHg 89%
    05:00 +28°C° 0.8 mm 1 m/s 742 mmHg 87%
    06:00 +28°C° 0.8 mm 1 m/s 742 mmHg 86%
    07:00 +29°C° 0.8 mm 1 m/s 743 mmHg 84%
    08:00 +30°C° 0.4 mm 1 m/s 743 mmHg 77%
    09:00 +32°C° 0.4 mm 1 m/s 743 mmHg 70%
    10:00 +33°C° 0.4 mm 1 m/s 743 mmHg 63%
    11:00 +34°C° 0.5 mm 1 m/s 743 mmHg 62%
    12:00 +34°C° 0.5 mm 1 m/s 742 mmHg 60%
    13:00 +35°C° 0.5 mm 1 m/s 741 mmHg 59%
    14:00 +34°C° 1 mm 1 m/s 740 mmHg 61%
    15:00 +34°C° 1 mm 1 m/s 740 mmHg 63%
    16:00 +33°C° 1 mm 1 m/s 739 mmHg 66%
    17:00 +31°C° 0.9 mm 1 m/s 740 mmHg 71%
    18:00 +30°C° 0.9 mm 1 m/s 740 mmHg 77%
    19:00 +29°C° 0.9 mm 1 m/s 741 mmHg 83%
    20:00 +29°C° 0.3 mm 1 m/s 741 mmHg 84%
    21:00 +28°C° 0.3 mm 1 m/s 742 mmHg 85%
    22:00 +28°C° 0.3 mm 1 m/s 742 mmHg 86%
    23:00 +28°C° 0.4 mm 1 m/s 742 mmHg 86%

    20 Novembre, Mardi

    Heure Température Précipitation Vent Pression Humidité
    00:00 +28°C° 0.4 mm 1 m/s 742 mmHg 87%
    01:00 +28°C° 0.4 mm 1 m/s 741 mmHg 88%
    02:00 +28°C° 0.7 mm 1 m/s 741 mmHg 88%
    03:00 +27°C° 0.7 mm 1 m/s 741 mmHg 88%
    04:00 +27°C° 0.7 mm 1 m/s 741 mmHg 87%
    05:00 +28°C° 0.8 mm 1 m/s 742 mmHg 86%
    06:00 +28°C° 0.8 mm 1 m/s 742 mmHg 84%
    07:00 +29°C° 0.8 mm 1 m/s 743 mmHg 83%
    08:00 +30°C° 0.6 mm 1 m/s 743 mmHg 77%
    09:00 +31°C° 0.6 mm 1 m/s 743 mmHg 71%
    10:00 +33°C° 0.6 mm 1 m/s 743 mmHg 65%
    11:00 +34°C° 0.5 mm 1 m/s 742 mmHg 62%
    12:00 +34°C° 0.5 mm 1 m/s 742 mmHg 60%
    13:00 +35°C° 0.5 mm 1 m/s 741 mmHg 57%
    14:00 +34°C° 0.9 mm 1 m/s 740 mmHg 59%
    15:00 +34°C° 0.9 mm 1 m/s 740 mmHg 62%
    16:00 +33°C° 0.9 mm 1 m/s 740 mmHg 64%
    17:00 +32°C° 0.6 mm 1 m/s 741 mmHg 71%
    18:00 +30°C° 0.6 mm 1 m/s 741 mmHg 77%
    19:00 +29°C° 0.6 mm 1 m/s 742 mmHg 83%
    20:00 +28°C° 0.3 mm 1 m/s 742 mmHg 84%
    21:00 +28°C° 0.3 mm 1 m/s 743 mmHg 86%
    22:00 +28°C° 0.3 mm 1 m/s 743 mmHg 87%
    23:00 +28°C° 0.2 mm 1 m/s 743 mmHg 88%
    Voir plus